Photometre #853[NE_1.6_Dp] Stornoway_MO AOT

File : 20220825_853.hum

25/08/2022,06:18:33,TEMP=12.5,BA=5.72,STAT.A,ExtBa=12.30
25/08/2022,06:23:25,TEMP=12.6,BA=5.60,STAT.A,ExtBa=12.30
25/08/2022,06:29:06,TEMP=12.7,BA=5.60,STAT.A,ExtBa=12.30
25/08/2022,06:35:50,TEMP=12.8,BA=5.60,STAT.A,ExtBa=12.30
25/08/2022,06:42:13,TEMP=13.1,BA=5.60,STAT.D,ExtBa=12.30
25/08/2022,06:44:15,TEMP=13.5,BA=5.60,STAT.A,ExtBa=12.30
25/08/2022,06:48:24,TEMP=13.3,BA=5.60,STAT.D,ExtBa=12.40
25/08/2022,06:52:24,TEMP=13.4,BA=5.60,STAT.D,ExtBa=12.40
25/08/2022,06:54:24,TEMP=13.7,BA=5.60,STAT.A,ExtBa=12.40
25/08/2022,07:06:14,TEMP=13.3,BA=5.60,STAT.B,ExtBa=12.40
25/08/2022,07:12:09,TEMP=13.3,BA=5.72,STAT.A,ExtBa=12.40
25/08/2022,07:18:47,TEMP=13.3,BA=5.72,STAT.A,ExtBa=12.40
25/08/2022,07:26:14,TEMP=13.4,BA=5.60,STAT.A,ExtBa=12.40
25/08/2022,07:34:42,TEMP=13.4,BA=5.72,STAT.A,ExtBa=12.40
25/08/2022,07:44:24,TEMP=13.6,BA=5.72,STAT.C,ExtBa=12.40
25/08/2022,07:55:41,TEMP=14.1,BA=5.52,STAT.A,ExtBa=12.40
25/08/2022,08:00:24,TEMP=13.9,BA=5.72,STAT.D,ExtBa=12.40
25/08/2022,08:04:25,TEMP=14.1,BA=5.72,STAT.D,ExtBa=12.40
25/08/2022,08:08:25,TEMP=14.3,BA=5.72,STAT.D,ExtBa=12.40
25/08/2022,08:10:26,TEMP=14.8,BA=5.56,STAT.A,ExtBa=12.40
25/08/2022,08:16:25,TEMP=14.6,BA=5.56,STAT.D,ExtBa=12.40
25/08/2022,08:20:25,TEMP=14.8,BA=5.72,STAT.D,ExtBa=12.40
25/08/2022,08:24:25,TEMP=14.9,BA=5.72,STAT.D,ExtBa=12.40
25/08/2022,08:26:28,TEMP=15.3,BA=5.72,STAT.A,ExtBa=12.40
25/08/2022,08:32:25,TEMP=15.1,BA=5.72,STAT.D,ExtBa=12.40
25/08/2022,08:36:25,TEMP=15.3,BA=5.72,STAT.D,ExtBa=12.40
25/08/2022,08:40:25,TEMP=15.4,BA=5.68,STAT.D,ExtBa=12.40
25/08/2022,08:44:44,TEMP=15.4,BA=5.68,STAT.A,ExtBa=12.40
25/08/2022,08:56:01,TEMP=15.6,BA=5.68,STAT.h
25/08/2022,09:00:01,TEMP=15.6,BA=5.68,STAT.h
25/08/2022,09:04:01,TEMP=15.6,BA=5.68,STAT.h
25/08/2022,09:08:01,TEMP=15.6,BA=5.68,STAT.h
25/08/2022,09:09:42,TEMP=15.6,BA=5.68,STAT.h
25/08/2022,09:12:01,TEMP=15.6,BA=5.72,STAT.h
25/08/2022,09:16:01,TEMP=15.6,BA=5.72,STAT.h
25/08/2022,09:20:01,TEMP=15.6,BA=5.72,STAT.h
25/08/2022,09:24:25,TEMP=14.4,BA=5.72,STAT.D,ExtBa=12.50
25/08/2022,09:27:36,TEMP=14.8,BA=5.72,STAT.F,ExtBa=12.40
25/08/2022,09:51:45,TEMP=17.0,BA=5.56,STAT.D,ExtBa=12.40
25/08/2022,09:56:25,TEMP=16.4,BA=5.56,STAT.D,ExtBa=12.40
25/08/2022,09:58:23,TEMP=16.5,BA=5.56,STAT.D,ExtBa=12.40
25/08/2022,10:12:25,TEMP=16.2,BA=5.68,STAT.D,ExtBa=12.40
25/08/2022,10:14:24,TEMP=16.8,BA=5.68,STAT.D,ExtBa=12.40
25/08/2022,10:20:25,TEMP=16.4,BA=5.68,STAT.D,ExtBa=12.40
25/08/2022,10:27:36,TEMP=15.6,BA=5.68,STAT.F,ExtBa=12.40
25/08/2022,10:36:25,TEMP=15.1,BA=5.68,STAT.D,ExtBa=12.40
25/08/2022,10:40:25,TEMP=15.3,BA=5.68,STAT.D,ExtBa=12.40
25/08/2022,10:42:34,TEMP=15.8,BA=5.68,STAT.D,ExtBa=12.40
25/08/2022,10:56:25,TEMP=15.0,BA=5.68,STAT.D,ExtBa=12.50
25/08/2022,10:58:26,TEMP=15.3,BA=5.68,STAT.D,ExtBa=12.40
25/08/2022,11:12:25,TEMP=15.4,BA=5.68,STAT.D,ExtBa=12.50
25/08/2022,11:14:23,TEMP=15.8,BA=5.68,STAT.D,ExtBa=12.40
25/08/2022,11:27:36,TEMP=15.0,BA=5.68,STAT.F,ExtBa=12.50
25/08/2022,11:40:25,TEMP=15.2,BA=5.68,STAT.D,ExtBa=12.50
25/08/2022,11:42:34,TEMP=15.8,BA=5.68,STAT.D,ExtBa=12.40
25/08/2022,11:49:03,TEMP=16.2,BA=5.68,STAT.D,ExtBa=12.50
25/08/2022,11:52:25,TEMP=16.5,BA=5.56,STAT.D,ExtBa=12.50
25/08/2022,11:56:25,TEMP=16.6,BA=5.56,STAT.D,ExtBa=12.40
25/08/2022,11:58:25,TEMP=16.9,BA=5.56,STAT.D,ExtBa=12.40
25/08/2022,12:04:25,TEMP=16.7,BA=5.60,STAT.D,ExtBa=12.50
25/08/2022,12:08:25,TEMP=16.7,BA=5.60,STAT.D,ExtBa=12.40
25/08/2022,12:12:25,TEMP=16.6,BA=5.56,STAT.D,ExtBa=12.40
25/08/2022,12:14:28,TEMP=16.8,BA=5.56,STAT.D,ExtBa=12.40
25/08/2022,12:27:36,TEMP=14.9,BA=5.68,STAT.F,ExtBa=12.40
25/08/2022,12:40:25,TEMP=14.8,BA=5.68,STAT.D,ExtBa=12.50
25/08/2022,12:42:34,TEMP=15.2,BA=5.68,STAT.D,ExtBa=12.40
25/08/2022,12:56:26,TEMP=15.8,BA=5.68,STAT.D,ExtBa=12.50
25/08/2022,12:58:24,TEMP=16.4,BA=5.68,STAT.D,ExtBa=12.40
25/08/2022,13:04:25,TEMP=16.8,BA=5.52,STAT.D,ExtBa=12.50
25/08/2022,13:08:25,TEMP=17.2,BA=5.52,STAT.D,ExtBa=12.50
25/08/2022,13:12:25,TEMP=17.4,BA=5.56,STAT.D,ExtBa=12.40
25/08/2022,13:14:24,TEMP=17.6,BA=5.56,STAT.D,ExtBa=12.40
25/08/2022,13:20:54,TEMP=16.7,BA=5.56,STAT.D,ExtBa=12.50
25/08/2022,13:24:25,TEMP=16.7,BA=5.56,STAT.D,ExtBa=12.40
25/08/2022,13:27:36,TEMP=16.7,BA=5.56,STAT.F,ExtBa=12.40
25/08/2022,13:42:34,TEMP=16.5,BA=5.68,STAT.D,ExtBa=12.40
25/08/2022,13:56:01,TEMP=16.7,BA=5.68,STAT.h
25/08/2022,13:57:10,TEMP=16.7,BA=5.68,STAT.h
25/08/2022,13:57:16,TEMP=16.7,BA=5.68,STAT.h
25/08/2022,14:08:01,TEMP=16.7,BA=5.68,STAT.h
25/08/2022,14:12:05,TEMP=16.7,BA=5.68,STAT.h
25/08/2022,14:12:11,TEMP=16.7,BA=5.68,STAT.h
25/08/2022,14:12:12,TEMP=16.7,BA=5.68,STAT.h
25/08/2022,14:16:01,TEMP=16.7,BA=5.68,STAT.h
25/08/2022,14:20:01,TEMP=16.7,BA=5.68,STAT.h
25/08/2022,14:24:01,TEMP=16.7,BA=5.68,STAT.h
25/08/2022,14:27:10,TEMP=16.7,BA=5.68,STAT.h
25/08/2022,14:40:01,TEMP=16.7,BA=5.68,STAT.h
25/08/2022,14:42:10,TEMP=16.7,BA=5.68,STAT.h
25/08/2022,14:42:16,TEMP=16.7,BA=5.68,STAT.h
25/08/2022,14:52:01,TEMP=16.7,BA=5.68,STAT.h
25/08/2022,14:56:01,TEMP=16.7,BA=5.68,STAT.h
25/08/2022,14:57:10,TEMP=16.7,BA=5.68,STAT.h
25/08/2022,14:57:16,TEMP=16.7,BA=5.68,STAT.h
25/08/2022,15:08:25,TEMP=14.1,BA=5.68,STAT.D,ExtBa=12.50
25/08/2022,15:12:25,TEMP=14.4,BA=5.56,STAT.D,ExtBa=12.50
25/08/2022,15:14:28,TEMP=14.8,BA=5.56,STAT.D,ExtBa=12.40
25/08/2022,15:24:25,TEMP=14.6,BA=5.68,STAT.D,ExtBa=12.50
25/08/2022,15:27:35,TEMP=14.8,BA=5.68,STAT.F,ExtBa=12.40
25/08/2022,15:40:25,TEMP=14.4,BA=5.68,STAT.D,ExtBa=12.40
25/08/2022,15:45:03,TEMP=14.5,BA=5.68,STAT.B,ExtBa=12.40
25/08/2022,15:56:25,TEMP=14.3,BA=5.68,STAT.D,ExtBa=12.50
25/08/2022,16:08:25,TEMP=14.0,BA=5.68,STAT.D,ExtBa=12.50
25/08/2022,16:10:26,TEMP=14.4,BA=5.68,STAT.A,ExtBa=12.40
25/08/2022,16:24:25,TEMP=13.8,BA=5.68,STAT.D,ExtBa=12.40
25/08/2022,16:30:12,TEMP=13.8,BA=5.56,STAT.A,ExtBa=12.40
25/08/2022,16:44:25,TEMP=13.5,BA=5.68,STAT.D,ExtBa=12.40
25/08/2022,16:46:25,TEMP=13.9,BA=5.68,STAT.A,ExtBa=12.40
25/08/2022,16:59:29,TEMP=13.4,BA=5.68,STAT.A,ExtBa=12.40
25/08/2022,17:10:46,TEMP=13.4,BA=5.68,STAT.C,ExtBa=12.40
25/08/2022,17:20:28,TEMP=13.5,BA=5.72,STAT.A,ExtBa=12.40
25/08/2022,17:28:56,TEMP=13.5,BA=5.72,STAT.A,ExtBa=12.40
25/08/2022,17:36:23,TEMP=13.5,BA=5.56,STAT.A,ExtBa=12.40
25/08/2022,17:43:01,TEMP=13.5,BA=5.68,STAT.A,ExtBa=12.40
25/08/2022,17:48:56,TEMP=13.5,BA=5.68,STAT.B,ExtBa=12.40
25/08/2022,18:00:24,TEMP=13.4,BA=5.72,STAT.D,ExtBa=12.40
25/08/2022,18:02:28,TEMP=13.8,BA=5.72,STAT.A,ExtBa=12.40
25/08/2022,18:11:16,TEMP=13.7,BA=5.72,STAT.A,ExtBa=12.40
25/08/2022,18:16:24,TEMP=14.0,BA=5.72,STAT.D,ExtBa=12.40
25/08/2022,18:19:20,TEMP=14.4,BA=5.72,STAT.A,ExtBa=12.40
25/08/2022,18:24:24,TEMP=14.5,BA=5.56,STAT.D,ExtBa=12.40
25/08/2022,18:26:25,TEMP=14.9,BA=5.56,STAT.A,ExtBa=12.30
25/08/2022,18:31:44,TEMP=14.6,BA=5.72,STAT.A,ExtBa=12.40
25/08/2022,18:36:36,TEMP=14.3,BA=5.72,STAT.A,ExtBa=12.40